• En España
  • Lista de países
  • Para 7 días
  • Temperatura del agua
  • Mapa Satelital
  • El tiempo en el mapa
  • Informadores
  • user-avatar
    Iniciar sesión

    Tiempo cada hora Kazanskoe

    Hoy, 23 Septiembre, Domingo

    Tiempo Temperatura Precipitaciones Viento Presión Humedad
    00:00 +20°C° 0 mm 6 mps 741 mmHg 55%
    01:00 +19°C° 0 mm 6 mps 741 mmHg 54%
    02:00 +19°C° 0 mm 6 mps 740 mmHg 54%
    03:00 +19°C° 0 mm 6 mps 740 mmHg 53%
    04:00 +17°C° 0.1 mm 6 mps 740 mmHg 57%
    05:00 +17°C° 0.1 mm 5 mps 739 mmHg 61%
    06:00 +16°C° 0.1 mm 5 mps 739 mmHg 65%
    07:00 +15°C° 0.8 mm 5 mps 739 mmHg 72%
    08:00 +13°C° 0.8 mm 6 mps 739 mmHg 79%
    09:00 +10°C° 0.8 mm 6 mps 739 mmHg 86%
    10:00 +10°C° 1.1 mm 6 mps 740 mmHg 85%
    11:00 +10°C° 1.1 mm 5 mps 740 mmHg 85%
    12:00 +9°C° 1.1 mm 5 mps 741 mmHg 84%
    13:00 +10°C° 0 mm 5 mps 741 mmHg 81%
    14:00 +12°C° 0 mm 5 mps 742 mmHg 78%
    15:00 +12°C° 0 mm 4 mps 742 mmHg 75%
    16:00 +12°C° 0 mm 4 mps 742 mmHg 76%
    17:00 +12°C° 0 mm 3 mps 742 mmHg 77%
    18:00 +12°C° 0 mm 3 mps 742 mmHg 77%
    19:00 +11°C° 0 mm 3 mps 742 mmHg 80%
    20:00 +10°C° 0 mm 3 mps 742 mmHg 82%
    21:00 +9°C° 0 mm 3 mps 742 mmHg 85%
    22:00 +9°C° 0 mm 3 mps 742 mmHg 86%
    23:00 +9°C° 0 mm 3 mps 742 mmHg 87%

    Mañana, 24 Septiembre, Lunes

    Tiempo Temperatura Precipitaciones Viento Presión Humedad
    00:00 +8°C° 0 mm 3 mps 742 mmHg 88%
    01:00 +8°C° 0 mm 3 mps 742 mmHg 89%
    02:00 +8°C° 0 mm 3 mps 742 mmHg 90%
    03:00 +7°C° 0 mm 3 mps 742 mmHg 92%
    04:00 +7°C° 0 mm 3 mps 742 mmHg 91%
    05:00 +7°C° 0 mm 3 mps 742 mmHg 91%
    06:00 +7°C° 0 mm 3 mps 742 mmHg 90%
    07:00 +9°C° 0 mm 3 mps 742 mmHg 85%
    08:00 +10°C° 0 mm 3 mps 742 mmHg 80%
    09:00 +11°C° 0 mm 4 mps 741 mmHg 75%
    10:00 +12°C° 0 mm 4 mps 741 mmHg 71%
    11:00 +13°C° 0 mm 5 mps 741 mmHg 67%
    12:00 +13°C° 0 mm 6 mps 740 mmHg 64%
    13:00 +11°C° 0.7 mm 7 mps 739 mmHg 69%
    14:00 +10°C° 0.7 mm 7 mps 738 mmHg 74%
    15:00 +9°C° 0.7 mm 8 mps 738 mmHg 79%
    16:00 +8°C° 2.1 mm 9 mps 736 mmHg 82%
    17:00 +8°C° 2.1 mm 9 mps 735 mmHg 85%
    18:00 +8°C° 2.1 mm 10 mps 733 mmHg 88%
    19:00 +9°C° 1.6 mm 10 mps 732 mmHg 88%
    20:00 +9°C° 1.6 mm 10 mps 730 mmHg 89%
    21:00 +11°C° 1.6 mm 10 mps 729 mmHg 89%
    22:00 +9°C° 0.2 mm 10 mps 728 mmHg 87%
    23:00 +9°C° 0.2 mm 10 mps 728 mmHg 85%

    Pasado mañana, 25 Septiembre, Martes

    Tiempo Temperatura Precipitaciones Viento Presión Humedad
    00:00 +8°C° 0.2 mm 10 mps 727 mmHg 83%
    01:00 +8°C° 0 mm 10 mps 728 mmHg 83%
    02:00 +7°C° 0 mm 9 mps 729 mmHg 83%
    03:00 +6°C° 0 mm 9 mps 729 mmHg 83%
    04:00 +6°C° 0 mm 9 mps 730 mmHg 83%
    05:00 +6°C° 0 mm 9 mps 730 mmHg 83%
    06:00 +6°C° 0 mm 8 mps 731 mmHg 83%
    07:00 +6°C° 0 mm 9 mps 732 mmHg 83%
    08:00 +7°C° 0 mm 9 mps 732 mmHg 82%
    09:00 +7°C° 0 mm 9 mps 733 mmHg 81%
    10:00 +7°C° 0 mm 9 mps 734 mmHg 80%
    11:00 +7°C° 0 mm 9 mps 734 mmHg 78%
    12:00 +7°C° 0 mm 9 mps 735 mmHg 76%
    13:00 +6°C° 0.1 mm 9 mps 736 mmHg 76%
    14:00 +6°C° 0.1 mm 8 mps 737 mmHg 76%
    15:00 +6°C° 0.1 mm 8 mps 738 mmHg 76%
    16:00 +6°C° 0.2 mm 8 mps 738 mmHg 76%
    17:00 +5°C° 0.2 mm 8 mps 739 mmHg 77%
    18:00 +5°C° 0.2 mm 8 mps 739 mmHg 77%
    19:00 +5°C° 0.2 mm 7 mps 740 mmHg 77%
    20:00 +5°C° 0.2 mm 7 mps 741 mmHg 78%
    21:00 +4°C° 0.2 mm 6 mps 741 mmHg 78%
    22:00 +4°C° 0.1 mm 6 mps 742 mmHg 79%
    23:00 +4°C° 0.1 mm 6 mps 742 mmHg 79%

    26 Septiembre, Miércoles

    Tiempo Temperatura Precipitaciones Viento Presión Humedad
    00:00 +4°C° 0.1 mm 6 mps 743 mmHg 80%
    01:00 +4°C° 0 mm 6 mps 744 mmHg 79%
    02:00 +3°C° 0 mm 6 mps 744 mmHg 79%
    03:00 +3°C° 0 mm 6 mps 745 mmHg 79%
    04:00 +2°C° 0 mm 6 mps 746 mmHg 79%
    05:00 +1°C° 0 mm 5 mps 746 mmHg 79%
    06:00 +1°C° 0 mm 5 mps 747 mmHg 79%
    07:00 +1°C° 0 mm 5 mps 748 mmHg 76%
    08:00 +2°C° 0 mm 6 mps 748 mmHg 73%
    09:00 +3°C° 0 mm 6 mps 749 mmHg 70%
    10:00 +4°C° 0 mm 6 mps 749 mmHg 66%
    11:00 +7°C° 0 mm 6 mps 749 mmHg 61%
    12:00 +8°C° 0 mm 6 mps 749 mmHg 57%
    13:00 +8°C° 0 mm 6 mps 749 mmHg 56%
    14:00 +9°C° 0 mm 7 mps 749 mmHg 54%
    15:00 +9°C° 0 mm 7 mps 749 mmHg 52%
    16:00 +9°C° 0 mm 6 mps 749 mmHg 57%
    17:00 +8°C° 0 mm 5 mps 748 mmHg 62%
    18:00 +7°C° 0 mm 4 mps 748 mmHg 66%
    19:00 +7°C° 0 mm 4 mps 748 mmHg 68%
    20:00 +7°C° 0 mm 5 mps 748 mmHg 70%
    21:00 +7°C° 0 mm 5 mps 747 mmHg 72%
    22:00 +7°C° 0.1 mm 6 mps 747 mmHg 75%
    23:00 +6°C° 0.1 mm 7 mps 746 mmHg 78%

    27 Septiembre, Jueves

    Tiempo Temperatura Precipitaciones Viento Presión Humedad
    00:00 +6°C° 0.1 mm 7 mps 745 mmHg 81%
    01:00 +6°C° 0.4 mm 8 mps 745 mmHg 82%
    02:00 +6°C° 0.4 mm 8 mps 744 mmHg 83%
    03:00 +5°C° 0.4 mm 9 mps 743 mmHg 84%
    04:00 +5°C° 0.3 mm 9 mps 742 mmHg 83%
    05:00 +5°C° 0.3 mm 10 mps 742 mmHg 83%
    06:00 +5°C° 0.3 mm 10 mps 741 mmHg 82%
    07:00 +5°C° 0.2 mm 10 mps 741 mmHg 83%
    08:00 +5°C° 0.2 mm 9 mps 740 mmHg 84%
    09:00 +5°C° 0.2 mm 9 mps 740 mmHg 84%
    10:00 +6°C° 0.1 mm 9 mps 740 mmHg 84%
    11:00 +6°C° 0.1 mm 9 mps 740 mmHg 84%
    12:00 +7°C° 0.1 mm 8 mps 739 mmHg 84%
    13:00 +7°C° 0.3 mm 9 mps 739 mmHg 84%
    14:00 +7°C° 0.3 mm 9 mps 739 mmHg 84%
    15:00 +8°C° 0.3 mm 9 mps 738 mmHg 85%
    16:00 +7°C° 0.4 mm 9 mps 738 mmHg 86%
    17:00 +7°C° 0.4 mm 9 mps 738 mmHg 87%
    18:00 +7°C° 0.4 mm 8 mps 737 mmHg 88%
    19:00 +7°C° 0.3 mm 8 mps 737 mmHg 88%
    20:00 +7°C° 0.3 mm 8 mps 737 mmHg 88%
    21:00 +9°C° 0.3 mm 8 mps 737 mmHg 89%
    22:00 +9°C° 0.6 mm 7 mps 736 mmHg 89%
    23:00 +9°C° 0.6 mm 7 mps 736 mmHg 90%

    28 Septiembre, Viernes

    Tiempo Temperatura Precipitaciones Viento Presión Humedad
    00:00 +9°C° 0.6 mm 6 mps 736 mmHg 91%
    01:00 +9°C° 0.4 mm 6 mps 736 mmHg 89%
    02:00 +9°C° 0.4 mm 6 mps 736 mmHg 87%
    03:00 +8°C° 0.4 mm 6 mps 736 mmHg 86%
    04:00 +8°C° 0 mm 6 mps 737 mmHg 87%
    05:00 +7°C° 0 mm 6 mps 737 mmHg 88%
    06:00 +5°C° 0 mm 6 mps 737 mmHg 89%
    07:00 +7°C° 0 mm 6 mps 738 mmHg 86%
    08:00 +6°C° 0 mm 7 mps 738 mmHg 83%
    09:00 +8°C° 0 mm 7 mps 738 mmHg 80%
    10:00 +9°C° 0 mm 8 mps 738 mmHg 73%
    11:00 +10°C° 0 mm 8 mps 738 mmHg 66%
    12:00 +10°C° 0 mm 8 mps 739 mmHg 59%
    13:00 +11°C° 0 mm 8 mps 739 mmHg 57%
    14:00 +11°C° 0 mm 7 mps 738 mmHg 55%
    15:00 +11°C° 0 mm 7 mps 738 mmHg 53%
    16:00 +10°C° 0 mm 6 mps 738 mmHg 57%
    17:00 +9°C° 0 mm 5 mps 739 mmHg 60%
    18:00 +8°C° 0 mm 4 mps 739 mmHg 64%
    19:00 +7°C° 0 mm 4 mps 739 mmHg 65%
    20:00 +6°C° 0 mm 4 mps 740 mmHg 67%
    21:00 +5°C° 0 mm 4 mps 740 mmHg 68%
    22:00 +5°C° 0 mm 5 mps 740 mmHg 69%
    23:00 +3°C° 0 mm 5 mps 741 mmHg 69%
    Mostrar más